Flugplatz Unterschwaningen (UL)

Hier findest Du alle Informationen zum Flugplatz Unterschwaningen (UL).

Informationen für Piloten zum Flugplatz Unterschwaningen

Hier findest Du alle relevanten Informationen, die Du als Pilot benötigst, um Unterschwaningen anzufliegen.

Flugplatz: Unterschwaningen ICAO-Code: UL Flugplatz
Frequenz Turm: 120.975 Mhz GAFOR Gebiet: 56
Frequenz Ground: 120.975 Mhz Mogas: nein
Platzrunde: N 2000 ft Landegebühr: -
Platzhöhe: Sunrise: 06:30 Uhr UTC
Pisten: 07/25 - 350 m x 25 m, GRAS Sunset: 15:34 Uhr UTC

Flugwetter am Flugplatz Unterschwaningen

Die METAR Information stammen aus EDDN (56.08 km entfernt).

METAR Code:
2018/11/17 18:50
EDDN 171850Z 07008KT 040V110 CAVOK 03/M03 Q1029 NOSIG

Flugschulen am Flugplatz Unterschwaningen

Am Flugplatz Unterschwaningen gibt es leider keine Flugschule.

Benachbarte Flugplätze und Flugschulen

Es gibt 23 weitere Flugplätze in einem Umkreis von 50 km um den Flugplatz Unterschwaningen.

Jetzt anmelden

Passwort vergessen

Umfrage Archiv

Welche Art von Theorieunterricht würde Dir am ehesten zusagen?

Frontalunterricht
63.5 %
Selbststudium
36.5 %
Stimmen: 271 | Diskussion
Anzeige: Roland Aircraft
Statistik Alle Mitglieder

Aktuell sind 47 Besucher online, davon 5 Mitglieder und 42 Gäste.


Mitglieder online:
MT03  Higgy  Hackbusch  Moretea  trauntaler 

Anzeige: VFR Sprechfunk Simulator


Anzeige: Pocket FMS